TimeCST,TemperatureF,Dew PointF,Humidity,Sea Level PressureIn,VisibilityMPH,Wind Direction,Wind SpeedMPH,Gust SpeedMPH,PrecipitationIn,Events,Conditions,WindDirDegrees,DateUTC
12:15 AM,32.4,18.0,55,29.97,10.0,South,12.7,17.3,N/A,,Clear,190,2012-12-12 06:15:00
12:35 AM,32.5,18.0,55,29.96,10.0,South,13.8,-,N/A,,Clear,190,2012-12-12 06:35:00
12:55 AM,32.9,18.1,55,29.95,10.0,South,13.8,19.6,N/A,,Clear,190,2012-12-12 06:55:00
1:15 AM,32.9,18.3,55,29.94,10.0,South,15.0,20.7,N/A,,Clear,180,2012-12-12 07:15:00
1:35 AM,32.2,18.3,57,29.95,10.0,South,15.0,20.7,N/A,,Clear,190,2012-12-12 07:35:00
1:55 AM,32.4,18.5,57,29.94,10.0,South,13.8,21.9,N/A,,Clear,190,2012-12-12 07:55:00
2:15 AM,32.0,18.5,58,29.94,10.0,South,13.8,19.6,N/A,,Clear,180,2012-12-12 08:15:00
2:35 AM,32.0,18.7,58,29.94,10.0,South,11.5,18.4,N/A,,Clear,180,2012-12-12 08:35:00
2:55 AM,32.0,18.9,58,29.94,10.0,South,13.8,21.9,N/A,,Clear,180,2012-12-12 08:55:00
3:15 AM,32.2,18.9,58,29.94,10.0,South,12.7,19.6,N/A,,Clear,180,2012-12-12 09:15:00
3:35 AM,32.4,18.7,57,29.94,10.0,South,15.0,21.9,N/A,,Clear,180,2012-12-12 09:35:00
3:55 AM,32.4,18.7,57,29.93,10.0,South,15.0,25.3,N/A,,Clear,180,2012-12-12 09:55:00
4:15 AM,32.2,18.5,57,29.93,10.0,South,15.0,-,N/A,,Clear,190,2012-12-12 10:15:00
4:35 AM,32.2,18.3,57,29.93,10.0,South,13.8,19.6,N/A,,Clear,190,2012-12-12 10:35:00
4:55 AM,32.0,18.1,57,29.93,10.0,South,16.1,25.3,N/A,,Clear,180,2012-12-12 10:55:00
5:15 AM,32.0,18.0,56,29.92,10.0,South,13.8,18.4,N/A,,Clear,180,2012-12-12 11:15:00
5:35 AM,31.8,17.8,56,29.93,10.0,South,12.7,18.4,N/A,,Clear,180,2012-12-12 11:35:00
5:55 AM,31.8,17.6,56,29.92,10.0,South,16.1,-,N/A,,Clear,170,2012-12-12 11:55:00
6:15 AM,32.0,17.6,55,29.92,10.0,South,13.8,18.4,N/A,,Clear,170,2012-12-12 12:15:00
6:35 AM,32.0,17.4,55,29.93,10.0,South,13.8,-,N/A,,Clear,170,2012-12-12 12:35:00
7:15 AM,31.6,16.9,54,29.94,10.0,South,13.8,19.6,N/A,,Clear,170,2012-12-12 13:15:00
7:35 AM,31.5,16.7,54,29.95,10.0,South,12.7,18.4,N/A,,Clear,180,2012-12-12 13:35:00
7:55 AM,31.3,16.7,55,29.96,10.0,SSW,5.8,-,N/A,,Clear,200,2012-12-12 13:55:00
8:15 AM,31.5,17.1,55,29.96,10.0,South,10.4,-,N/A,,Clear,170,2012-12-12 14:15:00
8:35 AM,32.0,17.2,55,29.96,10.0,South,9.2,17.3,N/A,,Clear,170,2012-12-12 14:35:00
8:55 AM,32.9,17.2,53,29.96,10.0,South,11.5,-,N/A,,Clear,180,2012-12-12 14:55:00
9:15 AM,34.0,17.4,51,29.96,10.0,South,10.4,17.3,N/A,,Clear,180,2012-12-12 15:15:00
9:35 AM,35.8,17.4,47,29.96,10.0,South,16.1,23.0,N/A,,Clear,180,2012-12-12 15:35:00
9:55 AM,37.8,17.6,44,29.96,10.0,SSW,9.2,19.6,N/A,,Clear,200,2012-12-12 15:55:00
10:15 AM,39.4,17.4,41,29.96,10.0,South,15.0,25.3,N/A,,Clear,180,2012-12-12 16:15:00
10:35 AM,40.6,17.4,39,29.96,10.0,South,13.8,25.3,N/A,,Clear,190,2012-12-12 16:35:00
11:15 AM,43.5,17.4,35,29.96,10.0,South,16.1,24.2,N/A,,Clear,190,2012-12-12 17:15:00
11:35 AM,44.6,17.4,34,29.95,10.0,South,18.4,27.6,N/A,,Clear,190,2012-12-12 17:35:00
11:55 AM,46.6,18.1,32,29.94,10.0,South,19.6,24.2,N/A,,Clear,190,2012-12-12 17:55:00
12:15 PM,48.2,18.1,30,29.93,10.0,South,18.4,26.5,N/A,,Clear,180,2012-12-12 18:15:00
12:35 PM,49.5,18.0,29,29.94,10.0,South,19.6,27.6,N/A,,Clear,190,2012-12-12 18:35:00
12:55 PM,50.2,17.8,28,29.92,10.0,South,13.8,28.8,N/A,,Clear,180,2012-12-12 18:55:00
1:15 PM,50.5,18.0,28,29.92,10.0,South,17.3,26.5,N/A,,Clear,180,2012-12-12 19:15:00
1:55 PM,51.6,18.1,27,29.90,10.0,South,20.7,28.8,N/A,,Clear,180,2012-12-12 19:55:00
2:15 PM,51.8,18.3,27,29.89,10.0,South,18.4,29.9,N/A,,Clear,170,2012-12-12 20:15:00
2:35 PM,52.0,18.7,27,29.89,10.0,South,18.4,24.2,N/A,,Clear,170,2012-12-12 20:35:00
2:55 PM,52.7,18.3,26,29.89,10.0,South,16.1,25.3,N/A,,Clear,180,2012-12-12 20:55:00
3:15 PM,53.1,17.8,25,29.90,10.0,South,17.3,27.6,N/A,,Clear,190,2012-12-12 21:15:00
3:35 PM,52.9,17.4,25,29.90,10.0,South,16.1,25.3,N/A,,Clear,190,2012-12-12 21:35:00
3:55 PM,52.2,17.8,26,29.90,10.0,South,13.8,23.0,N/A,,Clear,170,2012-12-12 21:55:00
4:15 PM,51.6,17.6,26,29.90,10.0,South,12.7,21.9,N/A,,Clear,170,2012-12-12 22:15:00
4:35 PM,50.9,17.4,27,29.89,10.0,South,16.1,24.2,N/A,,Clear,180,2012-12-12 22:35:00
4:55 PM,50.0,17.2,27,29.89,10.0,South,13.8,21.9,N/A,,Clear,170,2012-12-12 22:55:00
5:15 PM,49.1,17.4,28,29.89,10.0,South,15.0,21.9,N/A,,Clear,170,2012-12-12 23:15:00
5:35 PM,48.2,17.4,29,29.89,10.0,South,18.4,23.0,N/A,,Clear,170,2012-12-12 23:35:00
5:55 PM,47.5,17.2,30,29.90,10.0,SSE,10.4,-,N/A,,Clear,160,2012-12-12 23:55:00
6:15 PM,45.9,17.4,32,29.92,10.0,SSE,12.7,18.4,N/A,,Clear,160,2012-12-13 00:15:00
6:55 PM,45.1,17.6,33,29.92,10.0,SSE,12.7,-,N/A,,Clear,160,2012-12-13 00:55:00
7:15 PM,44.1,17.6,35,29.92,10.0,SSE,12.7,20.7,N/A,,Clear,160,2012-12-13 01:15:00
7:35 PM,44.4,17.6,34,29.92,10.0,SSE,11.5,20.7,N/A,,Clear,160,2012-12-13 01:35:00
7:55 PM,42.4,17.4,37,29.93,10.0,SE,11.5,-,N/A,,Clear,140,2012-12-13 01:55:00
8:15 PM,42.4,17.2,36,29.94,10.0,SSE,9.2,-,N/A,,Clear,160,2012-12-13 02:15:00
8:35 PM,42.1,17.2,37,29.94,10.0,SSE,10.4,-,N/A,,Clear,150,2012-12-13 02:35:00
8:55 PM,41.9,17.2,37,29.93,10.0,SSE,10.4,-,N/A,,Clear,150,2012-12-13 02:55:00
9:35 PM,41.9,17.1,37,29.94,10.0,South,13.8,18.4,N/A,,Clear,170,2012-12-13 03:35:00
9:55 PM,42.1,17.2,37,29.93,10.0,SSE,15.0,21.9,N/A,,Clear,160,2012-12-13 03:55:00
10:15 PM,41.9,17.2,37,29.94,10.0,South,16.1,24.2,N/A,,Clear,170,2012-12-13 04:15:00
10:35 PM,41.4,17.2,38,29.93,10.0,SSE,15.0,20.7,N/A,,Clear,160,2012-12-13 04:35:00
10:55 PM,39.0,17.2,41,29.94,10.0,SSE,12.7,18.4,N/A,,Clear,150,2012-12-13 04:55:00
11:15 PM,38.3,17.4,43,29.95,10.0,SSE,9.2,-,N/A,,Clear,150,2012-12-13 05:15:00
11:35 PM,36.0,17.4,47,29.95,10.0,ESE,9.2,-,N/A,,Clear,120,2012-12-13 05:35:00
11:55 PM,34.7,17.6,50,29.95,10.0,SE,8.1,-,N/A,,Clear,130,2012-12-13 05:55:00